Meteo pe oră la Dziewczopolko

Astăzi, 2 Martie, Marţi

Timp Temperatura Precipitaţii Vânt Presiune Umiditate
00:00 +1°C° 0 mm 3 m/s 764 mmHg 93%
01:00 0°C° 0 mm 4 m/s 764 mmHg 93%
02:00 -1°C° 0 mm 4 m/s 763 mmHg 93%
03:00 -1°C° 0 mm 4 m/s 763 mmHg 93%
04:00 -1°C° 0 mm 4 m/s 762 mmHg 93%
05:00 -1°C° 0 mm 4 m/s 763 mmHg 94%
06:00 -1°C° 0 mm 4 m/s 763 mmHg 94%
07:00 -1°C° 0 mm 4 m/s 763 mmHg 94%
08:00 0°C° 0 mm 4 m/s 763 mmHg 89%
09:00 +3°C° 0 mm 4 m/s 763 mmHg 83%
10:00 +4°C° 0 mm 4 m/s 763 mmHg 78%
11:00 +6°C° 0 mm 4 m/s 763 mmHg 73%
12:00 +7°C° 0 mm 5 m/s 763 mmHg 67%
13:00 +8°C° 0 mm 5 m/s 763 mmHg 61%
14:00 +8°C° 0 mm 4 m/s 762 mmHg 62%
15:00 +8°C° 0 mm 4 m/s 762 mmHg 62%
16:00 +9°C° 0 mm 3 m/s 762 mmHg 63%
17:00 +8°C° 0 mm 3 m/s 762 mmHg 68%
18:00 +5°C° 0 mm 3 m/s 762 mmHg 74%
19:00 +5°C° 0 mm 2 m/s 762 mmHg 79%
20:00 +4°C° 0 mm 2 m/s 762 mmHg 81%
21:00 +4°C° 0 mm 2 m/s 762 mmHg 83%
22:00 +3°C° 0 mm 2 m/s 763 mmHg 85%
23:00 +4°C° 0 mm 1 m/s 763 mmHg 86%

Mâine, 3 Martie, Miercuri

Timp Temperatura Precipitaţii Vânt Presiune Umiditate
00:00 +3°C° 0 mm 1 m/s 763 mmHg 87%
01:00 +2°C° 0 mm 0 m/s 763 mmHg 88%
02:00 +2°C° 0 mm 0 m/s 762 mmHg 89%
03:00 +1°C° 0 mm 0 m/s 762 mmHg 89%
04:00 +1°C° 0 mm 0 m/s 761 mmHg 89%
05:00 +2°C° 0 mm 0 m/s 762 mmHg 91%
06:00 +3°C° 0 mm 1 m/s 762 mmHg 91%
07:00 +3°C° 0 mm 1 m/s 762 mmHg 91%
08:00 +4°C° 0 mm 1 m/s 761 mmHg 85%
09:00 +6°C° 0 mm 1 m/s 761 mmHg 80%
10:00 +7°C° 0 mm 1 m/s 761 mmHg 74%
11:00 +7°C° 0 mm 2 m/s 760 mmHg 68%
12:00 +8°C° 0 mm 2 m/s 760 mmHg 62%
13:00 +10°C° 0 mm 2 m/s 759 mmHg 57%
14:00 +10°C° 0 mm 2 m/s 758 mmHg 57%
15:00 +10°C° 0 mm 2 m/s 758 mmHg 57%
16:00 +10°C° 0 mm 2 m/s 757 mmHg 57%
17:00 +8°C° 0 mm 2 m/s 756 mmHg 60%
18:00 +7°C° 0 mm 2 m/s 756 mmHg 64%
19:00 +6°C° 0 mm 2 m/s 756 mmHg 68%
20:00 +5°C° 0 mm 2 m/s 755 mmHg 71%
21:00 +4°C° 0 mm 3 m/s 754 mmHg 75%
22:00 +4°C° 0 mm 3 m/s 754 mmHg 78%
23:00 +3°C° 0 mm 3 m/s 753 mmHg 81%

Poimâine, 4 Martie, Joi

Timp Temperatura Precipitaţii Vânt Presiune Umiditate
00:00 +3°C° 0 mm 3 m/s 753 mmHg 83%
01:00 +2°C° 0 mm 3 m/s 752 mmHg 85%
02:00 +1°C° 0 mm 4 m/s 751 mmHg 87%
03:00 +1°C° 0 mm 4 m/s 751 mmHg 88%
04:00 +1°C° 0 mm 4 m/s 750 mmHg 90%
05:00 +1°C° 0 mm 4 m/s 750 mmHg 91%
06:00 +1°C° 0 mm 4 m/s 749 mmHg 92%
07:00 +1°C° 0 mm 4 m/s 749 mmHg 93%
08:00 +2°C° 0 mm 5 m/s 749 mmHg 89%
09:00 +5°C° 0 mm 5 m/s 748 mmHg 84%
10:00 +5°C° 0 mm 6 m/s 748 mmHg 80%
11:00 +7°C° 0 mm 5 m/s 748 mmHg 76%
12:00 +7°C° 0 mm 5 m/s 748 mmHg 72%
13:00 +8°C° 0 mm 5 m/s 748 mmHg 68%
14:00 +8°C° 0 mm 5 m/s 747 mmHg 69%
15:00 +7°C° 0 mm 4 m/s 747 mmHg 70%
16:00 +7°C° 0 mm 4 m/s 746 mmHg 71%
17:00 +6°C° 0 mm 4 m/s 746 mmHg 75%
18:00 +5°C° 0 mm 3 m/s 746 mmHg 78%
19:00 +4°C° 0 mm 3 m/s 746 mmHg 81%
20:00 +3°C° 0 mm 3 m/s 746 mmHg 81%
21:00 +4°C° 0 mm 2 m/s 746 mmHg 81%
22:00 +3°C° 0 mm 2 m/s 746 mmHg 80%
23:00 +1°C° 0.1 mm 3 m/s 746 mmHg 85%

5 Martie, Vineri

Timp Temperatura Precipitaţii Vânt Presiune Umiditate
00:00 +1°C° 0.1 mm 3 m/s 746 mmHg 89%
01:00 -1°C° 0.1 mm 4 m/s 746 mmHg 93%
02:00 -2°C° 0.1 mm 4 m/s 746 mmHg 91%
03:00 -2°C° 0.1 mm 4 m/s 746 mmHg 89%
04:00 -4°C° 0.1 mm 5 m/s 746 mmHg 86%
05:00 -4°C° 0.1 mm 5 m/s 747 mmHg 84%
06:00 -4°C° 0.1 mm 5 m/s 748 mmHg 81%
07:00 -4°C° 0.1 mm 5 m/s 748 mmHg 78%
08:00 -2°C° 0 mm 5 m/s 749 mmHg 71%
09:00 -2°C° 0 mm 5 m/s 749 mmHg 63%
10:00 -1°C° 0 mm 5 m/s 750 mmHg 56%
11:00 0°C° 0 mm 5 m/s 750 mmHg 54%
12:00 0°C° 0 mm 5 m/s 751 mmHg 52%
13:00 +1°C° 0 mm 5 m/s 751 mmHg 51%
14:00 +1°C° 0 mm 4 m/s 751 mmHg 50%
15:00 +1°C° 0 mm 4 m/s 751 mmHg 49%
16:00 +1°C° 0 mm 4 m/s 752 mmHg 47%
17:00 +1°C° 0.1 mm 3 m/s 752 mmHg 53%
18:00 0°C° 0.1 mm 3 m/s 753 mmHg 59%
19:00 -1°C° 0.1 mm 2 m/s 754 mmHg 65%
20:00 -1°C° 0 mm 2 m/s 754 mmHg 67%
21:00 -2°C° 0 mm 2 m/s 755 mmHg 69%
22:00 -4°C° 0 mm 3 m/s 755 mmHg 71%
23:00 -3°C° 0 mm 2 m/s 756 mmHg 73%

6 Martie, Sâmbătă

Timp Temperatura Precipitaţii Vânt Presiune Umiditate
00:00 -3°C° 0 mm 2 m/s 756 mmHg 74%
01:00 -3°C° 0 mm 2 m/s 756 mmHg 76%
02:00 -3°C° 0 mm 2 m/s 757 mmHg 74%
03:00 -4°C° 0 mm 3 m/s 757 mmHg 73%
04:00 -4°C° 0 mm 3 m/s 758 mmHg 72%
05:00 -4°C° 0 mm 3 m/s 758 mmHg 70%
06:00 -4°C° 0 mm 3 m/s 759 mmHg 69%
07:00 -4°C° 0 mm 3 m/s 759 mmHg 67%
08:00 -2°C° 0 mm 3 m/s 760 mmHg 60%
09:00 -1°C° 0 mm 3 m/s 760 mmHg 52%
10:00 0°C° 0 mm 3 m/s 760 mmHg 45%
11:00 0°C° 0 mm 3 m/s 761 mmHg 42%
12:00 +1°C° 0 mm 3 m/s 761 mmHg 39%
13:00 +1°C° 0 mm 3 m/s 761 mmHg 36%
14:00 +1°C° 0 mm 3 m/s 761 mmHg 38%
15:00 +1°C° 0 mm 3 m/s 761 mmHg 39%
16:00 0°C° 0 mm 4 m/s 761 mmHg 40%
17:00 0°C° 0 mm 3 m/s 761 mmHg 45%
18:00 -1°C° 0 mm 3 m/s 762 mmHg 50%
19:00 -2°C° 0 mm 2 m/s 762 mmHg 55%
20:00 -3°C° 0 mm 2 m/s 762 mmHg 56%
21:00 -3°C° 0 mm 2 m/s 762 mmHg 58%
22:00 -4°C° 0 mm 3 m/s 762 mmHg 59%
23:00 -4°C° 0 mm 3 m/s 762 mmHg 60%

7 Martie, Duminică

Timp Temperatura Precipitaţii Vânt Presiune Umiditate
00:00 -4°C° 0 mm 3 m/s 762 mmHg 60%
01:00 -4°C° 0 mm 3 m/s 762 mmHg 60%
02:00 -4°C° 0 mm 4 m/s 762 mmHg 61%
03:00 -4°C° 0 mm 4 m/s 761 mmHg 61%
04:00 -4°C° 0 mm 4 m/s 761 mmHg 61%
05:00 -5°C° 0 mm 5 m/s 761 mmHg 60%
06:00 -5°C° 0 mm 5 m/s 760 mmHg 59%
07:00 -4°C° 0 mm 5 m/s 760 mmHg 57%
08:00 -3°C° 0 mm 6 m/s 760 mmHg 56%
09:00 -2°C° 0 mm 6 m/s 760 mmHg 55%
10:00 -1°C° 0 mm 7 m/s 760 mmHg 53%
11:00 0°C° 0 mm 7 m/s 759 mmHg 55%
12:00 +2°C° 0 mm 7 m/s 759 mmHg 56%
13:00 +2°C° 0 mm 7 m/s 758 mmHg 58%
14:00 +2°C° 0 mm 7 m/s 758 mmHg 62%
15:00 +1°C° 0 mm 6 m/s 757 mmHg 65%
16:00 +1°C° 0 mm 6 m/s 757 mmHg 69%
17:00 0°C° 0 mm 5 m/s 756 mmHg 73%
18:00 0°C° 0 mm 5 m/s 756 mmHg 76%
19:00 -1°C° 0 mm 4 m/s 755 mmHg 80%
20:00 -1°C° 0 mm 4 m/s 755 mmHg 79%
21:00 -1°C° 0 mm 5 m/s 755 mmHg 78%
22:00 -2°C° 0 mm 5 m/s 755 mmHg 77%
23:00 -2°C° 0 mm 5 m/s 754 mmHg 78%
Arată mai mult

Formular de consimțământ

Meteoprog și furnizorii noștri de servicii pot stoca și accesa date personale, precum cookies, identificatori de dispozitiv sau alte tehnologii similare pe dispozitivul dumneavoastră și procesa astfel de date pentru a personaliza conținutul și reclamele, dar și pentru a oferi caracteristici de social media și pentru a analiza traficul.

  • Stocarea și/sau accesarea informațiilor pe dispozitivul dumneavoastră

    Cookies, identificatori de dispozitiv sau alte informații pot fi stocate sau accesate pe dispozitiv în scopurile indicate mai sus.

  • Reclame și conținut personalizat, evaluarea reclamelor și a conținutului, informații despre audiențe și dezvoltarea produselor

    Reclamele și conținutul pot fi personalizate pe baza unui profil. Pot fi adăugate date suplimentare pentru a personaliza mai bine reclamele și conținutul. Performanța reclamelor și conținutului poate fi măsurată. Pot fi obținute informații despre utilizatorii care au văzut reclamele și conținutul. Aceste date pot fi utilizate pentru a dezvolta sau îmbunătăți experiența utilizatorilor, sistemele și software-ul.

Dând clic pe ‘Sunt de acord’, permiteți utilizarea cookie-urilor menționate, a identificatorilor de dispozitiv, balizelor web sau altor tehnologii similare. Setările pot fi modificate din browser-ul dispozitivului dumneavoastră.

În anumite scopuri, interesele legitime pot prima asupra consimțământului. Puteți citi mai multe informații în acest sens în Politica privind Confidențialitatea Datelor și Cookie.